User: anonymous   Login
Location: Newark
(52.3735°N, 16.9806°E)
Time: 05:33:49
(UTC+00:00)
Language:

TIGRISAT - Orbit

View from above orbital plane
View from above orbital plane
View from above satellite
View from above satellite

Ground track
Ground track

The orbit data is extracted from the following two-line orbital elements,

1 40043U 14033AK  21338.77783098  .00000340  00000-0  56676-4 0  9999
2 40043  97.6586 173.5334 0060952  67.4735 293.2911 14.74647877400932
Epoch (UTC): 04 December 2021 18:40:04
Eccentricity: 0.0060952
inclination: 97.6586°
perigee height: 603 km
apogee height: 689 km
right ascension of ascending node: 173.5334°
argument of perigee: 67.4735°
revolutions per day: 14.74647877
mean anomaly at epoch: 293.2911°
orbit number at epoch: 40093

The dashed part of the orbit path shows where the satellite is in the earth's shadow,  

DLR